Mount Carmel, IL

1:19 PM CDT on March 28, 2017 (GMT -0500)
Mount Carmel Municipal

Weather History for KAJG - February, 2012

Change the Weather History Date:

Tuesday, February 28, 2012

  Actual Average (KLWV) Record (KLWV)
Temperature  
Mean Temperature 46 °F -  
Max Temperature 62 °F 44 °F 68 °F (2011)
Min Temperature 30 °F 29 °F 5 °F (1993)
Degree Days  
Heating Degree Days 19    
Moisture  
Dew Point 31 °F    
Average Humidity 57    
Maximum Humidity 87    
Minimum Humidity 32    
Precipitation  
Precipitation 0.00 in - - ()
Sea Level Pressure  
Sea Level Pressure 30.27 in    
Wind  
Wind Speed 7 mph (East)    
Max Wind Speed 13 mph    
Max Gust Speed -    
Visibility 10 miles    
Events      
Averages and records for this station are not official NWS values.
T = Trace of Precipitation, MM = Missing Value Source: NWS Daily Summary

Daily Weather History Graph

Daily Weather History Graph

Search for Another Location

Airport or City:

Trip Planner

Search our weather history database for the weather conditions in past years. The results will help you decide how hot, cold, wet, or windy it might be!

Date:

Astronomy

Feb. 28, 2012 Rise Set
Actual Time 6:25 AM CST 5:42 PM CST
Civil Twilight 5:58 AM CST 6:09 PM CST
Nautical Twilight 5:27 AM CST 6:39 PM CST
Astronomical Twilight 4:57 AM CST 7:10 PM CST
Moon 9:37 AM CST No Moon Set
Length of Visible Light 12h 10m
Length of Day
11h 17m
Waxing Crescent, 38% of the Moon is Illuminated
Feb 28
Waxing Crescent
Feb 29
First Quarter
Mar 8
Full
Mar 14
Last Quarter
Mar 22
New

Hourly Weather History & Observations

Time (CST) Temp. Windchill Dew Point Humidity Pressure Visibility Wind Dir Wind Speed Gust Speed Precip Events Conditions
12:15 AM 37.4 °F 31.4 °F 26.6 °F 65% 30.44 in 10.0 mi NE 8.1 mph - N/A   Mostly Cloudy
12:35 AM 37.4 °F 33.8 °F 26.6 °F 65% 30.44 in 10.0 mi NE 4.6 mph - N/A   Mostly Cloudy
12:55 AM 37.4 °F 31.4 °F 26.6 °F 65% 30.44 in 10.0 mi NE 8.1 mph - N/A   Mostly Cloudy
1:15 AM 37.4 °F 31.4 °F 26.6 °F 65% 30.43 in 10.0 mi NE 8.1 mph - N/A   Scattered Clouds
1:35 AM 35.6 °F 30.7 °F 26.6 °F 70% 30.43 in 10.0 mi NE 5.8 mph - N/A   Scattered Clouds
1:55 AM 35.6 °F 30.7 °F 26.6 °F 70% 30.42 in 10.0 mi NE 5.8 mph - N/A   Clear
2:15 AM 35.6 °F 30.7 °F 26.6 °F 70% 30.43 in 10.0 mi NNE 5.8 mph - N/A   Clear
2:35 AM 33.8 °F 27.7 °F 26.6 °F 75% 30.42 in 10.0 mi NNE 6.9 mph - N/A   Clear
2:55 AM 33.8 °F 27.7 °F 26.6 °F 75% 30.42 in 10.0 mi NE 6.9 mph - N/A   Clear
3:15 AM 33.8 °F 27.7 °F 26.6 °F 75% 30.42 in 10.0 mi NE 6.9 mph - N/A   Clear
3:35 AM 32.0 °F 25.6 °F 26.6 °F 80% 30.42 in 10.0 mi NE 6.9 mph - N/A   Clear
3:55 AM 32.0 °F 26.4 °F 26.6 °F 80% 30.42 in 10.0 mi ENE 5.8 mph - N/A   Clear
4:15 AM 32.0 °F 24.8 °F 24.8 °F 75% 30.42 in 10.0 mi ENE 8.1 mph - N/A   Clear
4:35 AM 32.0 °F 25.6 °F 26.6 °F 80% 30.42 in 10.0 mi ENE 6.9 mph - N/A   Clear
4:55 AM 30.2 °F 22.6 °F 24.8 °F 80% 30.42 in 10.0 mi ENE 8.1 mph - N/A   Clear
5:15 AM 32.0 °F 26.4 °F 26.6 °F 80% 30.42 in 10.0 mi East 5.8 mph - N/A   Clear
5:35 AM 30.2 °F 24.3 °F 24.8 °F 80% 30.42 in 10.0 mi East 5.8 mph - N/A   Clear
5:55 AM 32.0 °F 26.4 °F 26.6 °F 80% 30.42 in 10.0 mi East 5.8 mph - N/A   Clear
6:15 AM 30.2 °F 24.3 °F 26.6 °F 86% 30.42 in 10.0 mi East 5.8 mph - N/A   Clear
6:35 AM 32.0 °F 26.4 °F 26.6 °F 80% 30.40 in 10.0 mi East 5.8 mph - N/A   Clear
6:55 AM 30.2 °F 23.4 °F 26.6 °F 86% 30.39 in 10.0 mi East 6.9 mph - N/A   Clear
7:15 AM 32.0 °F 25.6 °F 28.4 °F 87% 30.39 in 10.0 mi East 6.9 mph - N/A   Clear
7:35 AM 35.6 °F 31.7 °F 28.4 °F 75% 30.39 in 10.0 mi ENE 4.6 mph - N/A   Clear
7:55 AM 35.6 °F 29.2 °F 28.4 °F 75% 30.38 in 10.0 mi ENE 8.1 mph - N/A   Clear
8:15 AM 37.4 °F 29.3 °F 28.4 °F 70% 30.36 in 10.0 mi East 12.7 mph - N/A   Clear
8:35 AM 41.0 °F 37.1 °F 28.4 °F 61% 30.37 in 10.0 mi East 5.8 mph - N/A   Clear
8:55 AM 42.8 °F 38.6 °F 28.4 °F 57% 30.36 in 10.0 mi East 6.9 mph - N/A   Clear
9:15 AM 42.8 °F 38.0 °F 28.4 °F 57% 30.35 in 10.0 mi East 8.1 mph - N/A   Clear
9:35 AM 44.6 °F 39.7 °F 28.4 °F 53% 30.34 in 10.0 mi East 9.2 mph - N/A   Clear
9:55 AM 46.4 °F 42.4 °F 28.4 °F 50% 30.33 in 10.0 mi East 8.1 mph - N/A   Mostly Cloudy
10:15 AM 50.0 °F - 28.4 °F 43% 30.32 in 10.0 mi East 6.9 mph - N/A   Overcast
10:35 AM 50.0 °F - 28.4 °F 43% 30.31 in 10.0 mi East 5.8 mph - N/A   Overcast
10:55 AM 51.8 °F - 28.4 °F 41% 30.30 in 10.0 mi East 5.8 mph - N/A   Overcast
11:15 AM 53.6 °F - 28.4 °F 38% 30.29 in 10.0 mi East 6.9 mph - N/A   Overcast
11:35 AM 53.6 °F - 28.4 °F 38% 30.29 in 10.0 mi ESE 6.9 mph - N/A   Overcast
12:15 PM 55.4 °F - 30.2 °F 38% 30.25 in 10.0 mi ESE 5.8 mph - N/A   Overcast
12:35 PM 55.4 °F - 30.2 °F 38% 30.24 in 10.0 mi ESE 5.8 mph - N/A   Overcast
12:55 PM 57.2 °F - 30.2 °F 36% 30.22 in 10.0 mi SE 4.6 mph - N/A   Overcast
1:35 PM 60.8 °F - 32.0 °F 34% 30.19 in 10.0 mi ESE 5.8 mph - N/A   Overcast
1:55 PM 60.8 °F - 32.0 °F 34% 30.17 in 10.0 mi SE 9.2 mph - N/A   Overcast
2:15 PM 60.8 °F - 32.0 °F 34% 30.16 in 10.0 mi ESE 9.2 mph - N/A   Overcast
2:35 PM 62.6 °F - 32.0 °F 32% 30.15 in 10.0 mi SE 6.9 mph - N/A   Overcast
2:55 PM 62.6 °F - 33.8 °F 34% 30.14 in 10.0 mi SE 9.2 mph - N/A   Overcast
3:15 PM 62.6 °F - 33.8 °F 34% 30.13 in 10.0 mi SE 8.1 mph - N/A   Overcast
3:35 PM 62.6 °F - 33.8 °F 34% 30.12 in 10.0 mi SE 6.9 mph - N/A   Overcast
3:55 PM 62.6 °F - 35.6 °F 37% 30.10 in 10.0 mi SE 4.6 mph - N/A   Overcast
4:15 PM 62.6 °F - 35.6 °F 37% 30.09 in 10.0 mi SE 4.6 mph - N/A   Overcast
4:35 PM 62.6 °F - 37.4 °F 39% 30.09 in 10.0 mi SE 3.5 mph - N/A   Overcast
4:55 PM 60.8 °F - 37.4 °F 42% 30.08 in 10.0 mi ESE 3.5 mph - N/A   Overcast
5:15 PM 60.8 °F - 37.4 °F 42% 30.06 in 10.0 mi East 5.8 mph - N/A   Overcast
5:35 PM 59.0 °F - 39.2 °F 48% 30.08 in 10.0 mi Calm Calm - N/A   Overcast
6:15 PM 55.4 °F - 39.2 °F 54% 30.05 in 10.0 mi East 8.1 mph - N/A   Overcast
6:35 PM 55.4 °F - 39.2 °F 54% 30.05 in 10.0 mi East 5.8 mph - N/A   Overcast
6:55 PM 55.4 °F - 39.2 °F 54% 30.05 in 10.0 mi East 6.9 mph - N/A   Overcast
7:15 PM 57.2 °F - 39.2 °F 51% 30.03 in 10.0 mi East 8.1 mph - N/A   Overcast
7:35 PM 59.0 °F - 39.2 °F 48% 30.02 in 10.0 mi ESE 6.9 mph - N/A   Overcast
7:55 PM 57.2 °F - 41.0 °F 55% 30.01 in 10.0 mi ESE 6.9 mph - N/A   Overcast
8:15 PM 57.2 °F - 39.2 °F 51% 29.98 in 10.0 mi ESE 10.4 mph - N/A   Overcast
8:35 PM 55.4 °F - 39.2 °F 54% 29.96 in 10.0 mi ESE 9.2 mph - N/A   Mostly Cloudy
8:55 PM 55.4 °F - 41.0 °F 58% 29.95 in 10.0 mi ESE 9.2 mph - N/A   Mostly Cloudy
9:15 PM 55.4 °F - 41.0 °F 58% 29.94 in 10.0 mi SE 9.2 mph - N/A   Overcast
9:35 PM 59.0 °F - 42.8 °F 55% 29.90 in 10.0 mi SE 12.7 mph - N/A Thunderstorm Mostly Cloudy
9:55 PM 60.8 °F - 44.6 °F 55% 29.89 in 10.0 mi SSE 12.7 mph - N/A Thunderstorm Mostly Cloudy
10:15 PM 62.6 °F - 46.4 °F 55% 29.87 in 10.0 mi SSE 18.4 mph 25.3 mph N/A Thunderstorm Unknown
10:35 PM 62.6 °F - 48.2 °F 59% 29.85 in 10.0 mi SSE 19.6 mph 26.5 mph N/A   Mostly Cloudy
10:55 PM 60.8 °F - 50.0 °F 68% 29.82 in 10.0 mi SSE 18.4 mph 24.2 mph N/A   Overcast
11:15 PM 60.8 °F - 50.0 °F 68% 29.81 in 10.0 mi South 18.4 mph - N/A   Overcast
11:35 PM 60.8 °F - 50.0 °F 68% 29.82 in 10.0 mi South 19.6 mph 27.6 mph N/A Thunderstorm Thunderstorm